Location: Peebles
(55.6412°N, 3.1714°W)
Time: 19:58:02
(UTC+01:00)

S-56A Canister/Altair - Visible Passes

Search period start: 02 October 2022 00:00
Search period end: 12 October 2022 00:00
Orbit: 637 x 2496 km, 38.9° (Epoch: 02 October)

Date Brightness Start Highest point End Pass type
(mag) Time Alt. Az. Time Alt. Az. Time Alt. Az.
02 Oct 10.3 03:08:20 17° SE 03:08:20 17° SE 03:10:48 10° ESE visible
02 Oct 9.7 05:05:45 19° SSW 05:08:13 22° S 05:13:10 10° SE visible
03 Oct 10.6 02:37:21 13° SE 02:37:21 13° SE 02:38:24 10° ESE visible
03 Oct 9.7 04:34:46 24° SSW 04:35:35 24° S 04:41:03 10° SE visible
03 Oct 9.9 06:33:55 10° WSW 06:38:03 15° SSW 06:41:30 10° S visible
04 Oct 9.8 04:03:48 25° S 04:03:48 25° S 04:08:52 10° SE visible
04 Oct 9.9 06:01:14 12° WSW 06:05:33 18° SSW 06:09:47 10° SSE visible
05 Oct 10.0 03:32:52 23° SSE 03:32:52 23° SSE 03:36:38 10° SE visible
05 Oct 9.8 05:30:17 18° SW 05:33:01 20° SSW 05:37:54 10° SSE visible
06 Oct 10.3 03:01:57 19° SE 03:01:57 19° SE 03:04:19 10° ESE visible
06 Oct 9.8 04:59:23 23° SSW 05:00:25 23° SSW 05:05:56 10° SSE visible
07 Oct 10.6 02:31:05 13° ESE 02:31:05 13° ESE 02:31:57 10° ESE visible
07 Oct 9.8 04:28:31 25° S 04:28:31 25° S 04:33:52 10° SE visible
07 Oct 10.2 06:27:05 10° WSW 06:29:55 12° SW 06:32:28 10° SSW visible
08 Oct 10.0 03:57:41 24° SSE 03:57:41 24° SSE 04:01:43 10° SE visible
08 Oct 10.1 05:55:08 13° SW 05:57:26 15° SW 06:01:19 10° S visible
09 Oct 10.3 03:26:55 20° SSE 03:26:55 20° SSE 03:29:31 10° SE visible
09 Oct 10.1 05:24:22 18° SW 05:24:53 18° SW 05:29:46 10° S visible
10 Oct 10.6 02:56:13 14° SE 02:56:13 14° SE 02:57:13 10° SE visible
10 Oct 10.0 04:53:40 20° SSW 04:53:40 20° SSW 04:57:58 10° SSE visible
11 Oct 10.2 04:23:03 19° S 04:23:03 19° S 04:26:02 10° SSE visible
